This is the latest recevied weather packets stored in our database for station/object OK2ZA-6. If no packets are shown the sender has not sent any weather packets the latest 10 day(s).
| Time | Temp. | Humidity | Pressure | Rain* | Wind** | Luminosity | Snow |
|---|---|---|---|---|---|---|---|
| 1777609204 | 5.56° C | 69% | 1027.9 hPa | 0 mm | - | - | - |
| 1777608604 | 5.56° C | 70% | 1027.9 hPa | 0 mm | - | - | - |
| 1777608004 | 5° C | 69% | 1027.9 hPa | 0 mm | - | - | - |
| 1777607404 | 5° C | 70% | 1027.9 hPa | 0 mm | - | - | - |
| 1777606804 | 5° C | 69% | 1027.8 hPa | 0 mm | - | - | - |
| 1777606204 | 5° C | 68% | 1027.7 hPa | 0 mm | - | - | - |
| 1777605604 | 5.56° C | 67% | 1027.7 hPa | 0 mm | - | - | - |
| 1777605004 | 5.56° C | 67% | 1027.7 hPa | 0 mm | - | - | - |
| 1777604404 | 5.56° C | 67% | 1027.6 hPa | 0 mm | - | - | - |
| 1777603804 | 5.56° C | 68% | 1027.5 hPa | 0 mm | - | - | - |
| 1777603204 | 5.56° C | 68% | 1027.7 hPa | 0 mm | - | - | - |
| 1777602603 | 5° C | 68% | 1027.7 hPa | 0 mm | - | - | - |
| 1777602004 | 5° C | 69% | 1027.9 hPa | 0 mm | - | - | - |
| 1777601404 | 4.44° C | 69% | 1027.9 hPa | 0 mm | - | - | - |
| 1777600804 | 4.44° C | 70% | 1028 hPa | 0 mm | - | - | - |
| 1777600204 | 4.44° C | 70% | 1028.1 hPa | 0 mm | - | - | - |
| 1777599604 | 4.44° C | 70% | 1028.2 hPa | 0 mm | - | - | - |
| 1777599004 | 3.89° C | 72% | 1028.2 hPa | 0 mm | - | - | - |
| 1777598404 | 3.33° C | 73% | 1028.1 hPa | 0 mm | - | - | - |
| 1777597804 | 3.33° C | 73% | 1028.1 hPa | 0 mm | - | - | - |
| 1777597204 | 3.33° C | 71% | 1028.1 hPa | 0 mm | - | - | - |
| 1777596604 | 3.33° C | 70% | 1028.2 hPa | 0 mm | - | - | - |
| 1777596004 | 3.89° C | 69% | 1028.1 hPa | 0 mm | - | - | - |
| 1777595403 | 3.89° C | 68% | 1028.1 hPa | 0 mm | - | - | - |
| 1777594804 | 4.44° C | 68% | 1028.1 hPa | 0 mm | - | - | - |
* Rain latest hour (hover to see other rain measurements)
** Current wind speed in m/s (hover to see current wind gust speed)